Temp_Advection
nan nan nan nan nan nan nan nan nan nan nan nan nan nan nan nan nan nan nan nan nan nan nan nan nan nan nan nan nan nan nan nan nan nan nan nan nan nan nan nan nan nan nan
nan 0 0 0 0 -0 -0 0 -0 -0 -0 0 0 0 -0 0 0 0 0 -0 -0 -0 -0 -0 -1 -1 -1 -1 -1 -1 -1 -1 -1 -1 -2 -1 -2 -1 -1 -1 -1 -1 nan
nan 0 0 -0 -0 0 -0 -0 -0 -0 -0 -0 -0 -0 -0 -0 0 0 0 -0 -0 -1 -1 -0 -0 -0 -1 -1 -1 -1 -1 -1 -1 -0 -0 -0 -0 -1 -1 -2 -1 -1 nan
nan -0 -0 0 0 -0 -0 -0 0 0 -0 -0 -0 -0 -0 -0 -0 0 0 -0 -0 -0 -0 -1 -1 -0 -0 -0 -1 -0 -0 -1 -1 -1 -0 0 0 -0 -1 -1 -1 -1 nan
nan 0 0 0 0 -0 0 0 -0 -0 -0 -0 -0 -0 -0 -0 -0 -0 -0 -0 -0 -0 -0 -0 -0 -0 -0 -0 -0 -0 0 0 -0 -0 -0 -0 0 0 -0 -0 -0 -0 nan
nan 0 0 0 0 0 0 0 0 0 -0 -0 -0 -0 -0 -0 -0 -0 -0 -0 -0 -0 -0 -0 -0 -0 -0 -0 -0 -0 0 0 -0 -0 -0 -0 0 0 -0 -0 -0 -1 nan
nan 0 0 0 0 0 0 0 0 0 -0 -0 -0 -0 -0 -0 -0 -0 -0 -0 -0 -0 -0 -0 -0 -0 0 -0 -0 -1 -0 0 0 -0 -0 -0 0 0 0 0 -0 -1 nan
nan 0 0 1 0 0 0 0 0 -0 -0 -0 -0 -0 -0 -0 -0 -0 -0 -0 -0 -0 -0 -0 -0 0 0 0 0 -1 -0 0 0 0 0 -0 -0 0 0 0 0 -0 nan
nan 0 1 0 0 0 0 0 0 0 -0 0 -0 -0 -0 -0 -0 -0 -0 -0 -0 -0 -0 0 1 1 1 0 0 -0 -1 0 0 0 0 0 -0 -0 0 0 0 0 nan
nan 1 1 0 0 0 0 0 -0 0 -0 -0 0 0 0 0 0 0 -0 -0 0 0 0 0 0 0 1 1 1 0 -0 -0 0 0 0 -0 -0 -0 -0 0 0 0 nan
nan 1 0 0 0 0 0 -0 -0 0 0 0 -0 0 0 0 -0 -0 -0 -0 -0 -0 -0 -0 -0 0 0 1 0 -0 -0 0 0 -0 0 0 -0 -0 -0 -0 -0 -0 nan
nan 0 0 0 0 -0 -0 -0 0 0 -0 -0 0 0 -0 -0 -0 -0 -0 -0 -0 -0 -0 -0 -0 0 0 0 0 0 -0 -0 0 0 0 0 0 0 0 -0 -0 -0 nan
nan 0 0 0 0 0 0 0 0 -0 0 0 -0 -0 -0 -0 -0 -0 -0 -0 -0 -0 1 0 0 -0 0 1 0 -0 -0 -0 0 0 0 0 0 0 -0 -0 -0 -0 nan
nan 0 0 0 0 0 0 -0 0 0 0 -0 -0 -0 -0 -0 -0 -0 -0 -0 -0 -0 0 0 -0 -0 0 0 0 -0 -0 0 0 0 0 0 0 -0 -0 -0 -0 -0 nan
nan 0 0 0 0 0 0 0 0 0 -0 -0 -0 -0 -0 -0 -0 -0 -1 -1 -0 0 -0 -0 -0 -0 -0 -0 -0 0 0 -0 -0 0 1 1 1 0 -0 -0 -0 -0 nan
nan 0 0 0 0 0 0 0 0 -0 -0 -0 0 0 0 -0 -0 -1 -1 -1 0 0 -0 -0 -0 -0 -0 -0 -0 -0 -0 0 0 0 0 0 0 1 0 0 0 -0 nan
nan 0 0 0 0 0 0 0 -0 -0 -0 -0 0 0 -0 -0 -0 -0 -0 -0 -0 0 0 0 -0 -0 -0 -0 -0 -0 -0 -0 0 0 -0 -0 -0 0 -0 0 0 0 nan
nan 0 0 0 0 0 0 -0 -0 -0 -0 -0 0 -0 -0 -0 -0 0 -0 -0 -0 -0 -0 0 0 0 -0 -0 -0 -0 -0 -0 0 0 0 -0 -0 -0 -0 -0 -0 -0 nan
nan 0 0 0 0 0 0 0 -0 -0 -0 -0 -0 -0 -0 -0 -0 0 0 0 -0 -0 0 0 0 0 0 -0 -0 -0 -0 -0 0 0 0 0 -0 -0 -0 -0 -0 -0 nan
nan 0 0 0 0 0 0 -0 -0 -0 -0 -0 -0 -0 -0 -0 -0 -0 0 0 0 0 0 0 0 0 0 -0 -0 -0 -1 -1 -0 -0 0 0 -0 -0 -0 -0 -0 -0 nan
nan 0 0 0 0 0 -0 -0 0 0 0 0 0 0 0 -0 -0 -0 -0 -0 -0 0 0 0 0 0 -0 -0 -0 -0 -0 -0 -0 -0 -0 0 -0 -0 -0 -0 -0 -0 nan
nan 0 0 0 0 0 0 0 -0 0 0 0 0 0 0 -0 -0 0 -0 -0 -0 0 0 0 0 0 -0 -0 -0 -0 0 0 0 0 0 0 0 -0 0 -0 -0 -0 nan
nan 0 0 0 0 0 0 0 0 0 0 0 -0 0 0 0 -0 0 0 0 0 0 -0 -0 0 0 0 0 -0 -0 0 0 0 0 1 0 0 0 0 0 -0 -0 nan
nan 0 0 0 0 0 0 0 0 0 0 0 -0 -0 -0 0 0 0 0 0 0 0 -0 0 0 0 0 0 -0 -0 -0 -0 0 0 0 1 0 0 0 0 0 -0 nan
nan 0 0 0 0 0 0 0 0 0 0 1 0 -0 -0 0 0 0 0 0 0 0 -0 0 0 0 0 0 0 -0 -0 -0 -0 0 -0 0 0 0 0 0 0 0 nan
nan nan nan nan nan nan nan nan nan nan nan nan nan nan nan nan nan nan nan nan nan nan nan nan nan nan nan nan nan nan nan nan nan nan nan nan nan nan nan nan nan nan nan
Wind_Speed
11 11 10 13 19 20 21 25 16 13 3 9 5 1 6 5 4 5 8 12 17 20 21 25 28 31 33 31 31 31 31 30 31 32 34 32 17 17 26 16 21 31 28
13 12 11 10 10 11 9 5 8 12 9 2 4 6 7 9 12 13 11 17 20 19 23 27 30 29 27 26 27 27 26 25 27 27 29 16 25 11 20 32 26 26 26
25 22 16 12 8 12 16 15 12 9 6 6 7 6 7 9 12 14 14 17 17 21 25 27 27 26 26 25 26 25 24 24 21 20 18 11 9 25 14 28 23 27 30
18 12 9 13 16 16 14 10 9 7 4 6 7 9 9 11 11 12 14 14 18 24 25 29 27 25 25 24 25 23 21 19 18 18 16 16 19 14 19 16 26 25 29
14 15 16 15 14 11 8 5 2 2 1 4 7 9 10 10 10 10 11 17 21 24 25 26 25 27 26 27 29 26 23 20 21 20 21 21 21 17 19 27 25 21 21
16 18 17 13 10 9 3 3 5 2 6 9 11 12 11 10 9 12 17 22 22 25 26 28 29 30 28 26 25 23 20 19 20 18 18 18 21 22 20 20 24 26 27
19 20 20 19 12 10 8 5 4 5 7 10 11 10 8 10 14 18 21 20 21 25 25 28 27 28 24 21 18 22 19 19 20 19 20 19 20 22 24 23 20 17 28
18 19 19 16 13 12 9 7 3 7 10 11 8 7 10 14 17 19 20 20 22 24 24 26 28 25 22 17 20 18 19 19 19 18 19 20 20 21 21 19 21 27 25
21 20 18 16 14 12 8 3 8 10 10 6 7 11 14 16 18 19 20 21 24 24 25 26 27 20 17 18 19 17 20 18 17 17 20 20 20 21 21 23 25 25 26
20 20 19 17 13 8 4 7 8 6 4 7 10 13 16 18 19 18 19 22 23 24 28 27 26 31 33 29 20 16 17 18 17 18 18 19 20 22 27 30 31 31 29
23 22 19 14 9 6 4 8 8 5 7 10 15 18 18 17 16 21 21 21 24 27 27 24 26 27 29 27 18 13 17 18 19 19 21 21 25 30 33 34 33 30 27
20 16 12 7 4 3 8 8 7 7 11 14 15 13 14 19 23 21 23 26 29 33 30 25 26 27 23 21 14 14 18 19 20 22 25 29 33 36 34 30 29 28 25
16 11 7 5 4 5 4 7 7 10 12 12 13 17 21 22 22 24 27 30 34 33 27 21 22 23 23 17 15 13 20 19 22 28 31 35 34 32 30 29 30 29 28
13 9 5 4 4 4 6 7 10 11 12 14 19 23 22 21 23 28 32 35 33 27 21 17 17 19 17 12 12 15 18 25 29 32 33 32 31 30 30 29 30 29 27
10 6 5 4 5 7 8 9 9 10 15 21 23 19 18 21 27 32 36 33 27 23 17 15 17 11 6 10 11 17 25 29 32 32 32 30 30 27 26 27 28 29 30
10 7 7 7 7 7 8 7 10 15 21 21 17 17 19 25 30 33 31 27 21 13 9 7 6 5 8 11 18 23 28 28 29 30 31 30 28 26 24 26 25 22 24
11 10 9 6 6 7 8 10 15 19 19 18 18 18 24 28 30 28 26 19 15 9 10 7 7 8 11 17 23 25 25 25 27 29 26 23 21 20 20 18 18 20 21
11 10 7 7 6 7 9 13 16 18 17 16 16 23 26 29 27 23 22 18 17 15 13 8 10 13 17 23 24 24 24 25 25 23 21 21 19 16 17 25 24 22 22
10 9 8 6 7 9 12 17 18 17 14 18 22 25 27 27 25 24 19 16 16 17 12 11 15 16 21 23 21 21 23 24 23 20 19 18 18 17 21 23 23 20 18
11 10 8 8 8 12 16 19 18 17 17 20 24 26 25 24 24 21 16 15 14 13 12 15 15 20 21 20 20 21 23 24 23 21 20 18 18 19 20 20 22 20 21
12 10 8 8 11 15 17 17 16 17 20 23 26 25 22 22 23 19 15 14 14 13 12 15 19 20 18 17 18 20 20 21 24 22 22 21 18 19 19 18 17 19 21
10 10 8 10 14 16 16 15 17 20 22 25 26 21 20 21 21 19 17 15 14 14 15 17 17 15 14 16 18 19 18 20 22 22 21 20 19 19 17 15 15 17 17
10 7 9 13 15 15 16 17 19 21 25 26 23 17 21 22 20 19 17 15 14 14 16 16 15 13 13 15 17 19 17 20 21 21 20 18 18 17 15 13 13 15 16
6 9 13 15 15 16 17 19 21 23 24 21 20 18 22 22 19 17 14 13 14 15 15 14 13 12 13 14 16 18 19 20 20 20 20 18 16 16 15 15 13 14 15
8 12 14 15 17 18 19 21 23 24 22 18 19 22 22 21 18 16 15 16 16 17 16 13 12 13 13 14 16 15 18 19 20 19 18 17 16 16 16 15 15 15 13
11 12 14 16 18 19 21 22 24 23 21 20 20 22 20 17 17 17 17 14 16 18 14 14 13 13 14 13 13 15 17 18 18 17 17 17 17 17 17 18 17 17 15
Wind_Direction
209 220 219 210 216 216 215 201 214 217 167 165 150 334 309 324 355 343 331 332 327 316 315 321 323 324 324 325 323 321 320 318 317 319 317 321 321 293 302 295 302 305 304
145 143 142 137 162 159 127 81 118 107 122 93 13 1 351 335 314 307 307 320 323 319 323 325 326 326 326 325 326 330 331 328 328 329 333 332 323 313 307 311 315 315 315
122 116 111 106 93 87 98 104 101 113 98 90 57 25 346 319 309 304 307 318 327 331 328 328 332 332 331 335 338 337 334 331 329 326 326 325 297 312 313 313 312 311 309
135 135 132 118 116 115 117 115 118 124 77 20 352 339 317 305 300 298 312 330 335 338 336 333 331 328 329 332 338 337 337 339 336 334 326 309 302 311 316 316 313 316 308
150 132 130 126 120 121 134 112 90 50 13 329 317 315 301 305 309 315 327 334 334 338 340 338 332 330 331 334 334 334 331 332 331 330 327 321 323 318 303 308 323 318 317
154 143 142 148 148 151 200 214 190 275 327 329 325 323 319 323 330 336 334 336 333 335 338 338 333 332 324 320 321 325 323 328 329 328 320 315 319 316 314 310 312 319 316
169 163 167 173 177 207 183 171 219 296 325 325 321 318 319 329 329 330 333 335 330 331 335 333 327 318 306 311 318 325 321 325 324 320 314 308 310 313 311 309 314 316 315
183 177 180 190 185 184 186 205 257 320 322 320 314 319 326 327 332 334 332 331 329 329 324 323 313 300 295 306 307 310 314 312 317 308 300 300 305 307 304 307 316 316 311
193 195 197 189 173 179 190 254 315 318 320 314 322 329 337 334 327 323 322 323 320 317 312 307 295 288 290 297 298 295 302 305 303 305 301 303 306 303 296 300 304 309 302
198 194 180 173 176 184 249 307 324 321 320 324 330 328 320 312 308 312 316 312 311 307 305 301 300 292 307 298 292 285 297 300 309 310 310 308 302 297 298 297 298 296 292
177 171 172 175 189 232 303 323 321 299 305 318 321 317 310 315 320 322 318 320 326 328 321 310 300 301 305 298 285 292 297 305 314 315 307 297 299 301 300 298 298 295 290
170 168 173 190 224 290 304 314 308 303 310 313 310 318 326 323 328 331 329 330 328 326 322 312 300 302 304 296 270 285 297 303 312 310 303 302 302 301 302 301 300 300 299
168 173 184 211 248 266 271 282 287 298 300 310 319 322 328 332 333 333 331 329 326 321 311 300 292 297 292 270 262 309 292 300 305 305 303 304 304 304 302 300 299 300 301
178 190 214 246 244 239 277 290 299 299 308 318 325 331 332 334 334 330 327 327 326 321 315 309 307 309 303 304 316 296 297 303 303 305 305 304 303 300 301 302 301 300 298
194 217 238 224 240 261 289 298 299 310 320 328 331 328 325 326 326 326 327 328 326 317 322 325 314 303 313 310 305 301 304 306 308 307 305 303 301 298 295 294 294 294 298
206 222 222 242 261 287 294 300 308 320 329 331 316 314 317 322 326 328 329 329 325 327 334 331 329 325 325 313 308 311 309 309 310 312 311 308 307 305 301 297 297 294 292
218 225 229 248 280 282 288 308 323 328 329 320 307 310 319 326 329 329 330 324 330 325 328 317 320 319 306 312 313 314 315 319 320 319 319 319 319 316 314 321 322 312 297
226 223 242 256 258 275 302 320 325 329 325 316 310 318 324 329 329 329 326 316 315 306 317 296 307 305 311 316 319 320 325 327 329 329 327 325 327 334 332 327 318 313 310
221 239 234 239 267 294 313 320 325 330 329 316 320 324 327 326 326 325 316 312 310 304 297 284 298 304 313 317 321 326 331 334 336 331 333 329 325 334 326 318 321 326 327
225 219 226 254 285 304 315 322 325 324 322 321 321 322 322 324 325 327 314 302 303 302 296 291 296 308 314 319 327 332 335 337 339 340 335 330 325 329 326 323 323 326 320
203 214 236 270 298 312 318 318 319 322 319 318 318 319 318 321 326 325 314 300 295 292 286 289 301 309 314 322 329 334 335 340 341 335 335 333 334 330 328 322 327 323 320
210 225 261 296 309 312 311 312 315 315 317 317 316 308 304 314 320 314 305 301 297 290 287 296 302 308 315 324 331 335 339 344 344 339 337 335 336 335 336 334 329 328 330
211 249 290 304 311 312 311 308 311 313 316 318 324 307 301 307 314 311 299 289 284 284 295 299 302 309 315 324 330 332 343 347 346 344 341 340 341 340 337 336 333 338 344
243 288 304 310 311 311 311 309 311 314 316 315 326 317 307 307 307 311 303 286 284 294 302 299 299 309 313 320 326 334 349 344 349 348 346 343 342 340 340 339 338 344 350
286 304 309 310 313 315 314 312 312 313 314 307 313 314 306 301 297 303 303 289 288 299 300 293 297 306 309 318 326 338 340 342 346 347 350 349 350 354 356 1 356 355 356
302 307 308 312 315 316 317 316 312 311 313 309 312 316 312 292 296 297 307 280 289 302 292 294 297 300 305 313 326 333 337 339 343 347 350 356 358 360 1 3 8 5 6
Height
1539 1541 1541 1543 1543 1546 1549 1553 1555 1557 1563 1564 1566 1566 1567 1567 1567 1567 1567 1566 1564 1562 1559 1557 1554 1551 1548 1544 1541 1539 1536 1533 1528 1524 1521 1520 1520 1519 1518 1515 1513 1511 1509
1539 1541 1542 1544 1546 1547 1550 1555 1559 1561 1563 1565 1565 1566 1566 1565 1566 1565 1563 1562 1560 1558 1555 1553 1550 1547 1544 1541 1538 1534 1531 1528 1524 1520 1517 1514 1513 1512 1513 1510 1508 1505 1503
1541 1544 1546 1546 1549 1551 1553 1557 1560 1563 1564 1564 1564 1565 1565 1564 1563 1562 1560 1558 1556 1554 1552 1549 1546 1543 1540 1537 1534 1531 1527 1524 1523 1520 1519 1514 1511 1507 1506 1506 1504 1502 1498
1544 1546 1548 1551 1551 1556 1559 1562 1564 1564 1564 1562 1562 1562 1562 1561 1560 1558 1557 1555 1553 1551 1548 1546 1543 1541 1538 1535 1531 1528 1524 1521 1519 1517 1517 1515 1511 1506 1499 1499 1497 1497 1494
1544 1546 1551 1553 1555 1558 1560 1560 1563 1563 1563 1562 1562 1560 1560 1559 1557 1556 1555 1553 1551 1548 1546 1543 1539 1536 1532 1528 1525 1522 1520 1518 1516 1514 1511 1509 1507 1505 1501 1492 1492 1491 1488
1547 1547 1549 1554 1555 1556 1558 1559 1561 1562 1560 1559 1558 1557 1557 1556 1555 1554 1552 1550 1547 1544 1541 1538 1535 1532 1529 1526 1523 1520 1518 1516 1514 1512 1510 1507 1504 1501 1499 1493 1489 1487 1483
1546 1546 1546 1548 1549 1556 1557 1557 1559 1559 1558 1557 1556 1555 1555 1554 1553 1551 1549 1546 1543 1540 1537 1534 1531 1529 1525 1521 1518 1516 1513 1512 1510 1509 1507 1505 1502 1499 1496 1492 1488 1484 1479
1546 1547 1548 1551 1549 1554 1556 1557 1557 1556 1555 1554 1554 1553 1552 1551 1549 1547 1544 1541 1538 1535 1532 1529 1525 1522 1519 1518 1516 1513 1511 1509 1506 1504 1503 1501 1498 1496 1494 1490 1487 1479 1476
1544 1546 1548 1550 1550 1552 1554 1554 1553 1553 1552 1552 1552 1551 1549 1547 1545 1542 1539 1537 1534 1531 1527 1523 1520 1518 1516 1512 1510 1510 1508 1506 1503 1500 1500 1496 1494 1492 1490 1488 1485 1480 1471
1542 1544 1547 1548 1549 1550 1551 1550 1549 1550 1550 1549 1548 1547 1545 1543 1540 1538 1536 1532 1529 1525 1521 1518 1515 1512 1509 1506 1504 1503 1503 1502 1499 1496 1494 1491 1488 1486 1485 1482 1479 1476 1470
1540 1543 1545 1546 1547 1547 1548 1548 1547 1548 1548 1547 1545 1544 1542 1539 1537 1534 1531 1527 1523 1519 1515 1512 1509 1506 1503 1502 1499 1499 1498 1496 1494 1491 1488 1486 1483 1479 1477 1474 1470 1466 1464
1540 1542 1543 1544 1546 1546 1545 1546 1546 1545 1545 1544 1542 1540 1538 1536 1533 1529 1526 1521 1517 1513 1508 1505 1503 1501 1499 1496 1495 1495 1494 1491 1489 1486 1483 1480 1476 1472 1469 1465 1462 1458 1456
1539 1541 1542 1543 1544 1543 1543 1543 1543 1543 1542 1541 1540 1537 1535 1531 1528 1524 1520 1516 1511 1506 1500 1498 1496 1494 1492 1491 1490 1489 1489 1486 1484 1481 1477 1472 1467 1463 1461 1458 1454 1451 1447
1538 1540 1541 1541 1541 1541 1541 1541 1541 1541 1539 1538 1536 1533 1529 1526 1523 1519 1514 1510 1504 1499 1495 1492 1490 1489 1488 1487 1487 1486 1484 1482 1478 1474 1470 1465 1461 1457 1454 1450 1447 1444 1441
1535 1536 1538 1539 1540 1540 1540 1539 1538 1537 1536 1534 1531 1528 1525 1522 1518 1514 1509 1503 1498 1493 1490 1488 1486 1486 1485 1485 1484 1483 1480 1476 1471 1467 1462 1458 1454 1451 1448 1444 1440 1437 1434
1532 1534 1536 1537 1537 1538 1537 1536 1535 1534 1532 1528 1526 1523 1520 1517 1513 1508 1502 1498 1494 1490 1488 1487 1485 1485 1484 1483 1481 1478 1474 1470 1465 1460 1454 1450 1446 1443 1439 1436 1433 1431 1428
1529 1531 1532 1533 1534 1535 1534 1533 1532 1530 1526 1524 1522 1519 1516 1512 1507 1502 1498 1495 1492 1489 1487 1485 1484 1483 1482 1480 1477 1473 1469 1465 1460 1453 1448 1443 1441 1437 1433 1430 1428 1425 1422
1526 1528 1529 1530 1531 1531 1531 1530 1528 1525 1522 1520 1518 1515 1510 1506 1502 1499 1495 1492 1490 1487 1486 1484 1482 1481 1479 1476 1472 1468 1464 1459 1454 1448 1444 1440 1436 1433 1430 1427 1423 1419 1416
1523 1525 1526 1527 1528 1529 1528 1526 1523 1520 1518 1516 1513 1509 1505 1502 1499 1495 1491 1489 1486 1485 1483 1481 1480 1478 1475 1472 1468 1463 1459 1454 1450 1445 1441 1437 1433 1430 1428 1423 1418 1414 1410
1520 1521 1523 1525 1525 1525 1523 1521 1518 1516 1513 1510 1507 1504 1501 1497 1493 1490 1488 1486 1484 1482 1480 1479 1477 1474 1471 1468 1464 1460 1455 1451 1446 1442 1438 1435 1431 1428 1424 1419 1415 1410 1407
1517 1520 1521 1521 1521 1520 1518 1516 1514 1511 1509 1506 1503 1500 1496 1493 1489 1486 1485 1483 1481 1479 1478 1476 1474 1471 1468 1464 1461 1457 1452 1448 1443 1439 1435 1431 1427 1424 1420 1416 1412 1409 1404
1515 1518 1519 1518 1517 1516 1514 1511 1509 1507 1504 1500 1497 1494 1492 1489 1486 1483 1481 1479 1477 1476 1474 1472 1470 1467 1465 1461 1458 1454 1450 1446 1441 1436 1432 1428 1424 1420 1416 1413 1410 1406 1402
1513 1514 1515 1514 1513 1511 1509 1506 1504 1502 1499 1495 1491 1489 1487 1485 1482 1479 1477 1475 1474 1472 1471 1469 1466 1464 1462 1459 1455 1452 1448 1443 1439 1434 1430 1426 1422 1418 1415 1411 1408 1404 1400
1511 1511 1511 1510 1509 1507 1505 1502 1500 1497 1493 1490 1487 1485 1482 1479 1477 1475 1472 1471 1470 1469 1467 1465 1463 1461 1459 1456 1453 1449 1445 1441 1437 1433 1428 1424 1421 1417 1413 1409 1406 1403 1399
1508 1507 1507 1505 1504 1502 1501 1498 1494 1491 1488 1485 1483 1480 1477 1474 1473 1471 1469 1467 1466 1464 1463 1461 1460 1457 1455 1453 1450 1446 1442 1439 1435 1431 1427 1423 1419 1415 1412 1409 1405 1402 1398
1505 1504 1503 1501 1500 1498 1495 1492 1488 1485 1482 1479 1478 1475 1472 1470 1468 1466 1465 1464 1462 1460 1459 1457 1456 1454 1452 1450 1447 1444 1440 1437 1433 1429 1425 1422 1418 1414 1411 1408 1405 1402 1398